Theta_e
317 317 315 312 308 304 302 302 303 305 307 309 310 311 311 311 313 316 318 320 319 316 313 313 315 314 315 316 330 329 325 326 328 328 328 323 322 323 325 327 328 328 329 330 324
315 317 318 316 312 309 306 304 302 301 304 306 305 306 306 306 306 306 309 316 319 319 317 314 315 317 317 319 326 325 322 324 324 325 326 323 321 323 322 324 327 329 329 330 325
314 315 316 318 316 313 309 306 305 302 301 302 303 303 303 303 303 302 303 304 313 320 320 318 320 324 322 324 326 325 321 322 325 325 325 326 324 326 322 322 322 325 327 329 327
309 313 314 315 316 316 314 310 307 304 304 303 302 301 300 301 299 313 311 305 305 316 320 317 322 327 322 321 323 325 325 324 322 323 323 324 326 326 325 326 326 327 328 329 329
309 308 313 313 314 315 316 314 309 307 307 307 306 304 300 301 301 314 313 312 306 308 316 318 321 326 324 322 321 321 321 322 322 322 322 322 325 324 326 327 327 327 327 328 328
310 307 308 311 313 313 315 316 312 308 308 310 309 307 301 304 301 308 314 312 312 310 310 317 319 324 324 322 319 320 320 322 323 322 322 322 322 324 323 323 326 326 326 325 326
310 309 308 307 310 312 313 316 314 309 306 311 311 308 303 302 307 313 313 312 310 309 310 314 320 323 322 321 321 322 321 320 321 322 322 322 320 321 321 322 322 322 321 320 320
307 310 309 307 306 308 312 314 315 311 307 310 312 309 306 305 314 312 312 312 311 313 309 312 321 322 323 322 321 321 319 321 319 320 322 321 319 317 319 320 320 319 318 318 319
308 307 309 309 307 306 308 314 315 312 308 309 312 309 309 308 305 310 315 312 317 315 315 319 321 321 322 320 319 319 320 320 320 319 318 319 320 318 319 318 319 319 321 321 321
306 308 308 309 308 307 309 314 314 314 309 310 311 309 310 310 308 306 316 314 318 318 317 319 320 318 315 317 319 319 320 318 320 317 317 317 316 315 319 318 319 319 320 320 321
305 307 308 308 309 306 308 312 315 312 309 309 310 310 311 311 310 306 315 316 318 318 315 317 317 318 318 316 316 316 319 319 318 316 317 316 315 314 316 316 317 318 320 321 322
303 304 308 308 309 307 308 312 313 311 311 309 310 310 310 311 310 309 312 316 317 316 315 317 316 313 314 315 319 318 319 318 317 316 315 314 314 312 313 314 316 317 318 320 320
302 303 305 308 309 308 307 310 312 311 310 309 309 310 310 310 311 310 309 313 314 315 315 314 313 313 315 316 318 318 319 317 318 316 314 312 313 311 311 312 315 316 317 316 317
302 301 303 308 307 308 307 309 311 310 310 310 308 309 309 309 310 311 310 313 314 313 313 314 314 314 314 315 316 318 316 317 318 317 317 312 314 311 312 311 310 314 314 314 315
303 301 303 306 308 307 308 309 310 310 310 308 308 309 309 310 310 311 311 314 312 312 312 311 313 312 315 315 314 316 315 316 316 316 314 314 313 310 309 310 309 311 313 313 316
303 303 302 304 307 307 308 309 308 308 309 309 308 307 308 310 310 310 311 312 313 311 310 309 311 311 311 314 313 316 316 316 316 315 315 312 312 311 309 309 308 309 311 313 318
303 303 302 304 307 306 308 308 308 309 305 308 309 307 308 311 310 310 310 312 310 311 312 311 310 310 312 314 313 316 315 310 312 318 314 310 312 312 309 308 308 309 313 314 315
304 303 302 304 306 306 307 306 309 306 305 305 305 307 309 310 309 309 311 311 310 308 307 311 313 310 309 312 313 315 316 310 311 313 312 310 313 312 310 311 312 312 312 313 313
304 303 302 304 304 306 306 307 308 305 303 305 307 308 309 310 309 311 311 310 310 308 307 307 308 308 309 312 312 313 316 310 311 305 308 310 309 309 309 310 310 311 314 314 312
305 304 302 303 304 305 306 307 306 303 303 305 306 307 309 310 309 310 311 309 309 309 308 308 309 308 309 311 312 312 311 315 313 313 312 310 311 312 310 310 310 310 314 310 311
305 303 303 302 304 305 307 306 302 304 305 304 303 307 308 310 309 310 309 308 309 308 309 308 308 309 311 312 311 315 315 314 312 308 310 308 308 305 309 308 307 307 311 312 313
303 302 303 305 304 303 305 303 304 303 305 304 302 303 305 307 309 309 308 308 309 309 310 308 308 307 309 309 310 311 314 314 315 312 310 310 310 307 307 309 308 307 309 311 314
300 303 303 302 305 304 300 302 302 304 304 304 304 305 304 306 309 308 307 307 308 308 309 309 310 305 305 308 309 311 312 313 313 309 312 314 313 306 307 310 312 313 313 313 313
301 303 303 304 301 300 300 303 303 302 305 305 304 304 305 305 306 307 307 306 307 308 309 310 305 308 309 308 308 312 311 312 313 315 313 313 312 308 309 309 310 312 313 313 313
301 298 302 302 300 299 299 300 303 303 301 302 306 305 305 305 306 306 306 306 306 308 309 309 305 308 308 309 310 310 311 311 312 313 312 312 311 310 308 306 309 310 312 312 312
299 299 300 299 301 301 301 300 299 301 302 304 305 304 305 304 306 307 305 307 307 305 308 307 304 306 308 307 308 306 308 309 311 311 311 311 311 310 309 310 310 310 311 312 312
300 301 302 302 300 302 297 297 300 300 301 302 304 303 305 305 305 305 305 305 306 307 308 308 303 304 309 307 306 309 308 309 310 310 310 311 311 309 307 307 309 310 311 311 312
Wind_Speed
21 22 20 15 14 15 16 15 16 16 17 18 18 18 18 19 19 18 15 11 10 9 10 9 5 6 5 4 3 3 3 3 3 2 4 2 2 2 3 7 5 6 4 2 12
20 22 24 18 16 15 16 15 15 15 15 17 16 16 16 16 17 22 21 16 13 10 8 6 4 5 3 5 4 4 4 8 4 4 1 2 1 3 3 4 2 4 4 7 14
23 21 16 18 20 17 14 15 14 13 14 14 14 14 13 12 12 10 12 19 19 11 7 6 4 3 3 4 6 5 5 4 4 1 2 2 2 1 5 3 6 7 9 10 13
25 24 23 20 16 21 17 13 13 13 11 11 10 10 9 7 4 1 3 9 19 17 9 6 5 3 3 3 4 3 7 4 4 2 2 3 3 3 6 3 4 3 5 9 12
27 26 27 25 22 16 20 16 13 12 12 10 8 8 8 7 9 3 1 1 9 17 14 7 8 5 3 3 2 3 4 7 6 6 6 5 9 7 10 12 7 5 5 10 11
27 27 29 29 27 24 20 20 15 13 13 11 9 7 9 5 6 10 6 3 2 7 14 13 4 3 3 2 5 3 3 2 3 7 5 5 6 2 6 15 17 11 11 11 15
27 26 24 30 30 30 26 20 20 15 14 13 10 8 10 15 7 11 13 7 6 4 11 16 10 4 1 2 4 4 3 2 3 4 4 4 6 8 23 18 18 20 22 22 23
29 27 25 22 27 32 31 23 25 17 15 14 11 9 9 8 12 12 13 10 5 2 6 13 10 4 3 2 2 2 3 2 2 6 5 7 5 7 12 12 16 17 17 18 20
28 29 28 25 23 27 31 25 22 19 15 15 12 7 7 2 17 14 15 10 7 4 6 8 5 4 4 3 3 3 3 7 6 7 2 6 2 5 13 14 20 20 19 17 18
30 30 29 27 24 24 26 24 18 20 17 13 6 3 13 6 10 23 14 10 9 7 5 4 6 2 2 3 7 6 3 3 5 2 2 6 8 9 23 22 21 24 23 25 28
32 29 31 28 26 26 24 22 17 13 29 8 16 6 2 7 9 12 15 13 8 10 5 6 9 14 16 3 4 3 4 6 3 4 3 7 8 10 23 22 23 28 32 34 34
40 33 30 30 28 25 27 29 25 7 10 15 2 18 6 8 6 10 20 13 8 7 6 3 12 7 3 4 3 3 2 3 5 4 3 7 11 11 17 17 28 29 29 31 34
38 37 32 33 28 28 33 39 21 15 5 13 12 19 12 8 4 15 23 15 5 6 7 5 2 18 6 3 5 5 7 3 5 7 4 6 10 8 9 11 25 29 34 36 38
36 37 38 32 32 31 36 32 16 17 3 6 8 8 13 7 5 12 22 13 4 9 3 7 12 5 5 6 6 12 6 4 3 4 4 3 7 5 5 8 7 26 31 31 28
39 35 40 36 28 39 34 31 24 17 8 10 10 9 14 14 9 13 24 12 6 6 6 6 5 10 8 5 7 8 6 8 4 4 4 1 3 6 3 6 10 21 30 22 17
42 38 40 39 34 36 32 33 27 7 11 7 10 11 9 13 5 8 11 13 5 3 1 5 1 4 7 4 8 2 3 3 2 1 7 7 5 4 4 6 5 9 15 11 9
46 41 40 43 35 34 37 36 8 12 5 8 7 9 13 11 7 7 8 14 7 8 9 4 8 1 3 5 2 8 5 1 2 4 6 1 5 12 7 10 7 12 15 4 10
48 42 40 46 38 38 38 12 15 6 8 3 7 10 14 12 8 6 11 12 13 2 3 9 4 13 8 8 7 12 8 5 7 4 4 2 8 6 8 18 20 24 23 18 11
47 42 41 46 44 40 36 12 15 16 10 11 13 12 8 10 9 7 12 15 15 14 7 6 6 2 3 6 12 6 14 7 3 1 2 5 7 8 10 12 17 10 9 7 16
49 43 45 47 42 45 17 24 5 2 9 10 9 14 13 17 10 13 13 12 9 22 7 6 2 5 13 6 10 7 7 5 4 4 5 5 5 7 8 8 8 8 6 11 16
45 22 37 45 43 33 10 10 5 12 16 7 6 8 13 12 13 13 8 6 18 14 20 5 4 2 6 10 17 7 8 5 4 5 5 2 6 7 9 9 9 10 13 17 16
32 7 40 45 13 9 16 7 13 7 4 4 6 6 10 17 15 13 14 12 23 20 17 6 3 4 9 2 4 18 15 13 6 7 6 1 8 3 4 0 9 10 9 22 17
23 11 35 53 12 6 1 3 3 6 6 6 5 5 4 17 9 13 9 7 13 16 16 13 5 1 6 3 2 9 15 15 16 2 11 7 10 2 4 6 11 13 13 16 15
14 5 16 27 7 4 7 5 6 3 3 5 4 6 6 9 9 17 12 4 18 21 17 24 4 10 13 4 6 9 10 17 14 10 19 12 22 4 2 6 3 6 9 12 11
8 2 10 9 6 7 3 6 8 5 2 3 1 6 8 5 16 4 15 4 7 20 16 11 8 13 18 2 2 5 16 16 18 22 13 23 20 20 11 9 15 12 8 13 15
12 8 9 9 18 10 6 9 10 6 9 6 3 5 3 7 10 18 7 12 9 5 13 6 6 8 14 13 8 3 6 13 20 25 20 27 23 25 18 21 16 20 15 17 20
12 18 18 15 12 11 5 6 7 10 1 4 14 4 6 12 4 5 6 12 9 11 14 11 6 4 11 15 4 7 17 19 15 17 15 18 29 6 9 12 23 25 25 28 28
Wind_Direction
241 237 233 230 235 239 234 235 238 241 242 245 248 254 259 262 261 260 256 249 260 271 269 267 264 249 245 195 169 142 72 187 222 198 274 329 126 131 132 145 168 172 167 197 182
243 236 237 232 231 230 239 237 234 238 242 246 247 252 259 266 271 261 254 248 253 255 264 279 224 215 192 173 174 139 154 212 207 178 250 357 73 167 151 146 173 164 163 168 182
243 235 234 234 236 233 232 238 237 234 239 247 250 254 256 265 287 272 251 237 234 234 242 258 246 193 188 177 177 171 199 207 173 139 18 338 142 283 176 203 196 210 171 171 187
241 238 236 236 241 232 235 235 236 233 234 240 243 247 245 233 214 227 277 244 223 227 226 238 234 174 203 192 202 163 213 183 172 87 5 319 291 268 208 186 147 164 215 193 203
239 238 237 235 241 243 234 234 232 230 229 231 237 235 220 220 239 200 88 176 207 221 227 228 224 191 191 203 222 219 198 201 209 244 252 274 254 255 246 227 233 245 248 228 231
239 239 236 235 235 239 246 231 228 226 219 223 225 224 215 228 255 214 198 181 160 229 225 219 248 238 242 241 175 275 252 224 236 228 235 208 247 210 255 249 255 255 257 255 256
238 237 241 237 233 232 241 238 221 219 217 219 221 222 225 235 224 201 211 221 250 276 223 214 216 234 196 304 238 286 328 331 212 213 240 200 271 215 251 260 262 261 267 271 266
240 237 235 234 235 230 232 239 216 212 213 213 215 215 239 248 206 206 216 223 253 244 200 206 222 253 232 290 31 135 49 357 249 209 240 162 248 241 253 237 254 261 264 266 270
240 236 232 230 230 225 220 227 220 206 204 202 201 200 260 237 208 205 204 207 206 188 182 184 202 221 216 129 31 351 226 224 306 216 264 185 232 256 286 267 264 268 271 263 274
237 234 232 227 227 219 213 214 218 200 187 177 192 214 247 227 224 213 204 199 188 180 174 193 199 188 80 143 202 211 222 256 229 305 184 270 272 276 274 273 269 272 257 266 271
236 232 227 226 222 214 205 198 181 176 177 172 187 186 205 234 235 211 196 191 180 188 157 186 206 212 212 201 205 156 184 231 298 265 262 243 262 267 277 282 276 272 266 267 269
235 232 228 220 216 207 204 204 197 159 162 176 197 196 143 141 175 203 190 189 188 195 148 145 227 214 210 202 234 214 230 263 290 277 217 279 268 263 261 260 270 273 270 265 267
233 230 228 216 211 207 209 208 201 168 101 209 194 202 215 194 202 195 191 201 183 192 189 186 248 195 184 185 201 225 233 226 239 320 284 303 273 237 259 242 254 259 262 264 268
236 229 222 213 213 207 210 205 201 176 204 179 202 220 205 184 246 204 193 184 221 197 183 227 240 144 178 209 164 247 185 195 247 328 262 9 292 248 242 263 252 264 266 264 271
230 221 213 212 201 204 204 197 177 165 222 164 164 189 183 173 158 191 194 185 173 187 174 224 193 200 215 194 180 232 173 212 231 249 304 202 292 277 316 277 264 261 265 275 279
225 221 210 211 200 203 197 190 165 173 216 166 151 171 152 188 175 135 169 194 176 201 198 218 180 175 205 174 173 208 227 160 94 102 257 209 178 257 227 221 263 269 288 252 316
218 216 204 205 195 193 189 173 200 208 153 168 170 169 179 171 174 163 164 185 169 189 216 192 236 244 152 166 125 198 155 285 273 217 236 355 206 250 273 258 235 273 289 335 347
211 210 204 206 199 184 173 195 199 135 185 153 160 149 187 148 204 164 155 193 217 133 127 198 224 205 188 200 186 199 179 170 202 209 242 141 234 249 245 278 275 270 277 285 272
205 202 200 204 206 188 180 202 221 173 158 143 141 166 181 187 190 161 194 204 200 191 180 173 252 202 193 169 169 191 209 179 95 25 51 228 292 291 264 279 277 276 286 249 167
192 187 197 198 199 194 192 211 165 176 111 141 156 182 176 178 175 192 178 204 209 197 203 202 234 203 204 173 219 188 151 178 187 212 235 255 266 235 297 280 262 273 225 183 154
181 170 192 194 193 192 219 201 146 204 144 141 148 162 187 172 186 191 201 233 200 191 189 165 148 332 121 204 197 188 203 203 183 174 205 268 256 216 233 274 274 260 223 185 161
167 160 177 176 186 190 220 161 176 156 204 129 119 114 179 184 195 193 211 213 201 166 195 179 150 194 213 284 243 222 220 201 202 212 240 265 256 275 197 355 83 51 158 161 156
129 114 173 184 194 165 110 112 82 134 176 154 154 147 173 181 192 198 205 234 195 179 173 173 195 93 333 337 212 210 217 216 222 77 214 210 257 271 229 120 108 114 129 149 164
126 132 150 187 221 142 147 121 127 235 150 89 128 126 115 177 202 190 218 218 196 200 187 168 158 205 219 217 150 211 198 211 212 230 239 229 250 249 124 140 138 138 162 183 194
127 149 166 174 165 125 135 111 151 131 140 174 244 185 159 145 194 198 209 181 204 195 185 183 207 213 237 356 184 216 214 210 213 231 224 243 243 245 236 227 230 232 227 221 221
137 150 151 114 147 129 141 174 153 158 161 186 220 168 122 161 184 205 162 206 200 176 193 211 240 185 244 232 213 223 209 214 218 227 233 244 252 251 236 234 232 233 240 225 224
136 138 140 147 151 167 187 161 180 133 229 194 192 138 180 227 244 302 263 282 258 182 199 197 176 147 237 223 154 233 228 215 224 227 220 229 240 209 222 206 221 229 229 238 250